Time,TemperatureF,DewpointF,PressureIn,WindDirection,WindDirectionDegrees,WindSpeedMPH,WindSpeedGustMPH,Humidity,HourlyPrecipIn,Conditions,Clouds,dailyrainin,SoftwareType,DateUTC
2013-07-21 12:00:00,73.0,67.2,28.91,NW,315,0.0,0.0,82,0.00,,---,0.00,VWS V14.01,2013-07-21 17:00:00,
2013-07-21 12:01:00,73.0,67.2,28.91,NW,315,0.0,0.0,82,0.00,,---,0.00,VWS V14.01,2013-07-21 17:01:00,
2013-07-21 12:02:00,73.0,67.2,28.91,NW,315,0.0,0.0,82,0.00,,---,0.00,VWS V14.01,2013-07-21 17:02:00,
2013-07-21 12:03:00,73.0,67.2,28.91,NW,315,0.0,0.0,82,0.00,,---,0.00,VWS V14.01,2013-07-21 17:03:00,
2013-07-21 12:04:00,73.0,67.2,28.91,NW,315,0.0,0.0,82,0.00,,---,0.00,VWS V14.01,2013-07-21 17:04:00,
2013-07-21 12:05:00,72.9,66.7,28.91,NW,315,0.0,0.0,81,0.00,,---,0.00,VWS V14.01,2013-07-21 17:05:00,
2013-07-21 12:06:00,72.9,67.1,28.91,NW,315,0.0,0.0,82,0.00,,---,0.00,VWS V14.01,2013-07-21 17:06:00,
2013-07-21 12:07:00,72.9,67.1,28.91,NW,315,0.0,0.0,82,0.00,,---,0.00,VWS V14.01,2013-07-21 17:07:00,
2013-07-21 12:08:00,72.9,67.1,28.91,NW,315,0.0,0.0,82,0.00,,---,0.00,VWS V14.01,2013-07-21 17:08:00,
2013-07-21 12:09:00,72.9,67.1,28.91,NW,315,0.0,0.0,82,0.00,,---,0.00,VWS V14.01,2013-07-21 17:09:00,
2013-07-21 12:10:00,72.9,67.1,28.91,NW,315,0.0,0.0,82,0.00,,---,0.00,VWS V14.01,2013-07-21 17:10:00,
2013-07-21 12:11:00,72.9,67.4,28.91,NW,315,0.0,0.0,83,0.00,,---,0.00,VWS V14.01,2013-07-21 17:11:00,
2013-07-21 12:12:00,72.9,67.4,28.91,NW,315,0.0,0.0,83,0.00,,---,0.00,VWS V14.01,2013-07-21 17:12:00,
2013-07-21 12:13:00,72.9,67.4,28.91,NW,315,0.0,0.0,83,0.00,,---,0.00,VWS V14.01,2013-07-21 17:13:00,
2013-07-21 12:14:00,72.9,67.4,28.91,NW,315,0.0,0.0,83,0.00,,---,0.00,VWS V14.01,2013-07-21 17:14:00,
2013-07-21 12:15:00,72.9,67.4,28.91,NW,315,0.0,0.0,83,0.00,,---,0.00,VWS V14.01,2013-07-21 17:15:00,
2013-07-21 12:16:00,72.9,67.4,28.91,NW,315,0.0,0.0,83,0.00,,---,0.00,VWS V14.01,2013-07-21 17:16:00,
2013-07-21 12:17:00,72.9,67.4,28.94,NW,315,0.0,0.0,83,0.00,,---,0.00,VWS V14.01,2013-07-21 17:17:00,
2013-07-21 12:18:00,72.9,67.4,28.94,NW,315,0.0,0.0,83,0.00,,---,0.00,VWS V14.01,2013-07-21 17:18:00,
2013-07-21 12:19:00,72.9,67.4,28.94,NW,315,0.0,0.0,83,0.00,,---,0.00,VWS V14.01,2013-07-21 17:19:00,
2013-07-21 12:20:00,72.9,67.4,28.94,NW,315,0.0,0.0,83,0.00,,---,0.00,VWS V14.01,2013-07-21 17:20:00,
2013-07-21 12:21:00,72.9,67.4,28.94,NW,315,0.0,0.0,83,0.00,,---,0.00,VWS V14.01,2013-07-21 17:21:00,
2013-07-21 12:22:00,72.7,67.6,28.94,NW,315,0.0,0.0,84,0.00,,---,0.00,VWS V14.01,2013-07-21 17:22:00,
2013-07-21 12:23:00,72.9,67.4,28.94,NW,315,0.0,0.0,83,0.00,,---,0.00,VWS V14.01,2013-07-21 17:23:00,
2013-07-21 12:24:00,72.7,67.6,28.94,NW,315,0.0,0.0,84,0.00,,---,0.00,VWS V14.01,2013-07-21 17:24:00,
2013-07-21 12:25:00,72.7,67.2,28.94,NW,315,0.0,0.0,83,0.00,,---,0.00,VWS V14.01,2013-07-21 17:25:00,
2013-07-21 12:26:00,72.7,67.2,28.94,NW,315,0.0,0.0,83,0.00,,---,0.00,VWS V14.01,2013-07-21 17:26:00,
2013-07-21 12:27:00,72.7,67.6,28.94,NW,315,0.0,0.0,84,0.00,,---,0.00,VWS V14.01,2013-07-21 17:27:00,
2013-07-21 12:28:00,72.7,67.6,28.94,NW,315,0.0,0.0,84,0.00,,---,0.00,VWS V14.01,2013-07-21 17:28:00,
2013-07-21 12:29:00,72.7,67.6,28.94,NW,315,0.0,0.0,84,0.00,,---,0.00,VWS V14.01,2013-07-21 17:29:00,
2013-07-21 12:30:00,72.7,67.6,28.94,NW,315,0.0,0.0,84,0.00,,---,0.00,VWS V14.01,2013-07-21 17:30:00,
2013-07-21 12:31:00,72.7,67.6,28.94,NW,315,0.0,0.0,84,0.00,,---,0.00,VWS V14.01,2013-07-21 17:31:00,
2013-07-21 12:32:00,72.7,67.6,28.91,NW,315,0.0,0.0,84,0.00,,---,0.00,VWS V14.01,2013-07-21 17:32:00,
2013-07-21 12:33:00,72.7,67.6,28.91,NW,315,0.0,0.0,84,0.00,,---,0.00,VWS V14.01,2013-07-21 17:33:00,
2013-07-21 12:34:00,72.7,67.6,28.91,NW,315,0.0,0.0,84,0.00,,---,0.00,VWS V14.01,2013-07-21 17:34:00,
2013-07-21 12:35:00,72.7,67.6,28.91,NW,315,0.0,0.0,84,0.00,,---,0.00,VWS V14.01,2013-07-21 17:35:00,
2013-07-21 12:36:00,72.7,67.2,28.91,NW,315,0.0,0.0,83,0.00,,---,0.00,VWS V14.01,2013-07-21 17:36:00,
2013-07-21 12:37:00,72.5,67.4,28.91,NW,315,0.0,0.0,84,0.00,,---,0.00,VWS V14.01,2013-07-21 17:37:00,
2013-07-21 12:38:00,72.5,67.4,28.91,NW,315,0.0,0.0,84,0.00,,---,0.00,VWS V14.01,2013-07-21 17:38:00,
2013-07-21 12:39:00,72.5,67.4,28.91,NW,315,0.0,0.0,84,0.00,,---,0.00,VWS V14.01,2013-07-21 17:39:00,
2013-07-21 12:40:00,72.5,67.4,28.91,NW,315,0.0,0.0,84,0.00,,---,0.00,VWS V14.01,2013-07-21 17:40:00,
2013-07-21 12:41:00,72.5,67.4,28.91,NW,315,0.0,0.0,84,0.00,,---,0.00,VWS V14.01,2013-07-21 17:41:00,
2013-07-21 12:42:00,72.5,67.4,28.91,NW,315,0.0,0.0,84,0.00,,---,0.00,VWS V14.01,2013-07-21 17:42:00,
2013-07-21 12:43:00,72.5,67.4,28.91,NW,315,0.0,0.0,84,0.00,,---,0.00,VWS V14.01,2013-07-21 17:43:00,
2013-07-21 12:44:00,72.5,67.4,28.91,NW,315,0.0,0.0,84,0.00,,---,0.00,VWS V14.01,2013-07-21 17:44:00,
2013-07-21 12:45:00,72.5,67.4,28.91,NW,315,0.0,0.0,84,0.00,,---,0.00,VWS V14.01,2013-07-21 17:45:00,
2013-07-21 12:46:00,72.5,67.4,28.91,NW,315,0.0,0.0,84,0.00,,---,0.00,VWS V14.01,2013-07-21 17:46:00,
2013-07-21 12:47:00,72.3,67.2,28.91,NNW,338,0.0,0.0,84,0.00,,---,0.00,VWS V14.01,2013-07-21 17:47:00,
2013-07-21 12:48:00,72.3,67.2,28.91,NW,315,0.0,0.0,84,0.00,,---,0.00,VWS V14.01,2013-07-21 17:48:00,
2013-07-21 12:49:00,72.3,67.2,28.91,NNW,338,0.0,0.0,84,0.00,,---,0.00,VWS V14.01,2013-07-21 17:49:00,
2013-07-21 12:50:00,72.1,67.0,28.91,NNW,338,0.0,0.0,84,0.00,,---,0.00,VWS V14.01,2013-07-21 17:50:00,
2013-07-21 12:51:00,72.1,67.0,28.91,NNW,338,0.0,0.0,84,0.00,,---,0.00,VWS V14.01,2013-07-21 17:51:00,
2013-07-21 12:52:00,72.0,66.9,28.91,NNW,338,0.0,0.0,84,0.00,,---,0.00,VWS V14.01,2013-07-21 17:52:00,
2013-07-21 12:53:00,72.1,67.0,28.91,NNW,338,0.0,0.0,84,0.00,,---,0.00,VWS V14.01,2013-07-21 17:53:00,
2013-07-21 12:54:00,72.0,66.9,28.91,NNW,338,0.0,0.0,84,0.00,,---,0.00,VWS V14.01,2013-07-21 17:54:00,
2013-07-21 12:55:00,72.0,66.9,28.91,NNW,338,0.0,0.0,84,0.00,,---,0.00,VWS V14.01,2013-07-21 17:55:00,
2013-07-21 12:56:00,72.0,66.9,28.91,NNW,338,0.0,0.0,84,0.00,,---,0.00,VWS V14.01,2013-07-21 17:56:00,
2013-07-21 12:57:00,71.8,66.7,28.91,NNW,338,0.0,0.0,84,0.00,,---,0.00,VWS V14.01,2013-07-21 17:57:00,
2013-07-21 12:58:00,71.8,66.7,28.91,NNW,338,0.0,0.0,84,0.00,,---,0.00,VWS V14.01,2013-07-21 17:58:00,
2013-07-21 12:59:00,71.8,66.7,28.91,NNW,338,0.0,0.0,84,0.00,,---,0.00,VWS V14.01,2013-07-21 17:59:00,
2013-07-21 13:00:00,71.8,66.7,28.91,NNW,338,0.0,0.0,84,0.00,,---,0.00,VWS V14.01,2013-07-21 18:00:00,
2013-07-21 13:01:00,71.8,66.7,28.91,NNW,338,0.0,0.0,84,0.00,,---,0.00,VWS V14.01,2013-07-21 18:01:00,
2013-07-21 13:02:00,71.6,66.5,28.88,NNW,338,0.0,0.0,84,0.00,,---,0.00,VWS V14.01,2013-07-21 18:02:00,
2013-07-21 13:03:00,71.6,66.5,28.88,NNW,338,0.0,0.0,84,0.00,,---,0.00,VWS V14.01,2013-07-21 18:03:00,
2013-07-21 13:04:00,71.6,66.5,28.88,NNW,338,0.0,0.0,84,0.00,,---,0.00,VWS V14.01,2013-07-21 18:04:00,
2013-07-21 13:05:00,71.6,66.5,28.88,NNW,338,0.0,0.0,84,0.00,,---,0.00,VWS V14.01,2013-07-21 18:05:00,
2013-07-21 13:06:00,71.6,66.5,28.88,NNW,338,0.0,0.0,84,0.00,,---,0.00,VWS V14.01,2013-07-21 18:06:00,
2013-07-21 13:07:00,71.6,66.5,28.88,NNW,338,0.0,0.0,84,0.00,,---,0.00,VWS V14.01,2013-07-21 18:07:00,
2013-07-21 13:08:00,71.6,66.5,28.88,NNW,338,0.0,0.0,84,0.00,,---,0.00,VWS V14.01,2013-07-21 18:08:00,
2013-07-21 13:09:00,71.6,66.5,28.88,NNW,338,0.0,0.0,84,0.00,,---,0.00,VWS V14.01,2013-07-21 18:09:00,
2013-07-21 13:10:00,71.4,66.7,28.88,NNW,338,0.0,0.0,85,0.00,,---,0.00,VWS V14.01,2013-07-21 18:10:00,
2013-07-21 13:11:00,71.4,66.7,28.88,NNW,338,0.0,0.0,85,0.00,,---,0.00,VWS V14.01,2013-07-21 18:11:00,
2013-07-21 13:12:00,71.4,66.7,28.88,NNW,338,0.0,0.0,85,0.00,,---,0.00,VWS V14.01,2013-07-21 18:12:00,
2013-07-21 13:13:00,71.4,66.7,28.88,NNW,338,0.0,1.1,85,0.00,,---,0.00,VWS V14.01,2013-07-21 18:13:00,
2013-07-21 13:14:00,71.4,66.7,28.88,NNW,338,0.0,0.0,85,0.00,,---,0.00,VWS V14.01,2013-07-21 18:14:00,
2013-07-21 13:15:00,71.4,66.7,28.88,NNW,338,0.0,0.0,85,0.00,,---,0.00,VWS V14.01,2013-07-21 18:15:00,
2013-07-21 13:16:00,71.4,66.7,28.88,NNW,338,0.0,0.0,85,0.00,,---,0.00,VWS V14.01,2013-07-21 18:16:00,
2013-07-21 13:17:00,71.2,66.5,28.88,NNW,338,0.0,0.0,85,0.00,,---,0.00,VWS V14.01,2013-07-21 18:17:00,
2013-07-21 13:18:00,71.2,66.5,28.88,NNW,338,0.0,0.0,85,0.00,,---,0.00,VWS V14.01,2013-07-21 18:18:00,
2013-07-21 13:19:00,71.2,66.5,28.88,NNW,338,0.0,0.0,85,0.00,,---,0.00,VWS V14.01,2013-07-21 18:19:00,
2013-07-21 13:20:00,71.2,66.8,28.88,NNW,338,0.0,0.0,86,0.00,,---,0.00,VWS V14.01,2013-07-21 18:20:00,
2013-07-21 13:21:00,71.2,66.8,28.88,NNW,338,0.0,0.0,86,0.00,,---,0.00,VWS V14.01,2013-07-21 18:21:00,
2013-07-21 13:22:00,71.2,66.8,28.88,NNW,338,1.6,2.2,86,0.00,,---,0.00,VWS V14.01,2013-07-21 18:22:00,
2013-07-21 13:23:00,71.2,66.8,28.88,NNW,338,0.0,0.0,86,0.00,,---,0.00,VWS V14.01,2013-07-21 18:23:00,
2013-07-21 13:24:00,71.2,66.8,28.88,NNW,338,1.6,2.2,86,0.00,,---,0.00,VWS V14.01,2013-07-21 18:24:00,
2013-07-21 13:25:00,71.2,66.8,28.88,NNW,338,0.0,1.6,86,0.00,,---,0.00,VWS V14.01,2013-07-21 18:25:00,
2013-07-21 13:26:00,71.1,66.7,28.88,NNW,338,0.0,0.0,86,0.00,,---,0.00,VWS V14.01,2013-07-21 18:26:00,
2013-07-21 13:27:00,71.1,66.3,28.88,NNW,338,0.0,0.0,85,0.00,,---,0.00,VWS V14.01,2013-07-21 18:27:00,
2013-07-21 13:37:00,70.9,66.5,28.88,NNW,338,0.0,0.0,86,0.00,,---,0.00,VWS V14.01,2013-07-21 18:37:00,
2013-07-21 13:42:00,70.9,66.5,28.88,NNW,338,0.0,0.0,86,0.00,,---,0.00,VWS V14.01,2013-07-21 18:42:00,
2013-07-21 13:47:00,70.9,66.5,28.88,NNW,338,0.0,0.0,86,0.00,,---,0.00,VWS V14.01,2013-07-21 18:47:00,
2013-07-21 13:52:00,70.9,66.5,28.88,NNW,338,0.0,0.0,86,0.00,,---,0.00,VWS V14.01,2013-07-21 18:52:00,
2013-07-21 13:57:00,70.9,66.5,28.88,NNW,338,0.0,0.0,86,0.00,,---,0.00,VWS V14.01,2013-07-21 18:57:00,
2013-07-21 14:02:00,70.9,66.8,28.88,NNW,338,0.0,0.0,87,0.00,,---,0.00,VWS V14.01,2013-07-21 19:02:00,
2013-07-21 14:08:00,71.1,67.0,28.88,NNW,338,0.0,0.0,87,0.00,,---,0.00,VWS V14.01,2013-07-21 19:08:00,
2013-07-21 14:13:00,71.1,67.0,28.88,NNW,338,0.0,0.0,87,0.00,,---,0.00,VWS V14.01,2013-07-21 19:13:00,
2013-07-21 14:18:00,71.4,67.3,28.88,NNW,338,0.0,1.1,87,0.00,,---,0.00,VWS V14.01,2013-07-21 19:18:00,
2013-07-21 14:23:00,72.0,68.2,28.88,NNW,338,0.0,0.0,88,0.00,,---,0.00,VWS V14.01,2013-07-21 19:23:00,
2013-07-21 14:28:00,72.3,68.2,28.88,NNW,338,0.0,0.0,87,0.00,,---,0.00,VWS V14.01,2013-07-21 19:28:00,
2013-07-21 14:33:00,72.5,68.4,28.88,NNW,338,0.0,0.0,87,0.00,,---,0.00,VWS V14.01,2013-07-21 19:33:00,
2013-07-21 14:38:00,72.5,68.1,28.88,NNW,338,0.0,0.0,86,0.00,,---,0.00,VWS V14.01,2013-07-21 19:38:00,
2013-07-21 14:39:00,72.5,68.1,28.88,NNW,338,0.0,0.0,86,0.00,,---,0.00,VWS V14.01,2013-07-21 19:39:00,
2013-07-21 14:44:00,72.7,68.3,28.88,NNW,338,0.0,0.0,86,0.00,,---,0.00,VWS V14.01,2013-07-21 19:44:00,
2013-07-21 14:49:00,72.9,68.1,28.88,NNW,338,0.0,0.0,85,0.00,,---,0.00,VWS V14.01,2013-07-21 19:49:00,
2013-07-21 14:54:00,72.9,67.4,28.88,NNW,338,0.0,0.0,83,0.00,,---,0.00,VWS V14.01,2013-07-21 19:54:00,
2013-07-21 14:59:00,72.9,67.1,28.88,NNW,338,0.0,0.0,82,0.00,,---,0.00,VWS V14.01,2013-07-21 19:59:00,
2013-07-21 15:04:00,72.9,66.7,28.88,North,0,0.0,0.9,81,0.00,,---,0.00,VWS V14.01,2013-07-21 20:04:00,
2013-07-21 15:09:00,72.9,66.7,28.88,North,0,0.0,0.0,81,0.00,,---,0.00,VWS V14.01,2013-07-21 20:09:00,
2013-07-21 15:14:00,72.9,66.7,28.88,North,0,0.0,0.0,81,0.00,,---,0.00,VWS V14.01,2013-07-21 20:14:00,
2013-07-21 15:19:00,73.4,67.6,28.88,North,0,0.0,0.0,82,0.00,,---,0.00,VWS V14.01,2013-07-21 20:19:00,
2013-07-21 15:24:00,73.8,67.9,28.88,NE,45,0.0,0.0,82,0.00,,---,0.00,VWS V14.01,2013-07-21 20:24:00,
2013-07-21 15:29:00,74.3,68.1,28.85,North,0,0.0,0.0,81,0.00,,---,0.00,VWS V14.01,2013-07-21 20:29:00,
2013-07-21 15:34:00,74.8,68.3,28.85,NE,45,1.3,1.3,80,0.00,,---,0.00,VWS V14.01,2013-07-21 20:34:00,
2013-07-21 15:40:00,74.8,68.3,28.85,NE,45,1.3,1.3,80,0.00,,---,0.00,VWS V14.01,2013-07-21 20:40:00,